Location: Errabaliem
(16.8108°N, 80.4255°E)
Time: 00:51:51
(UTC+00:00)

Milstar 3 - Pass Details

Date: 05 August 2024
Orbit: 1098 x 5146 km, 28.2° (Epoch: 18 September)

Event Time Altitude Azimuth Distance (km) Brightness Sun altitude
Rises 14:48:50 0° 286° (WNW) 4,064 7.1 -23.0°
Reaches altitude 10° 14:51:56 10° 297° (WNW) 2,975 6.1 -23.7°
Maximum altitude 14:57:53 33° 1° (N) 1,785 4.0 -24.9°
Enters shadow 15:02:39 17° 56° (NE) 2,737 4.6 -25.9°
